Weather History for Sturgis, MI

Change the Weather History Date:

Thursday, July 25, 2013

  Actual Average (KHAI) Record (KHAI)
Temperature  
Mean Temperature 63 °F -  
Max Temperature 73 °F 83 °F 92 °F (1964)
Min Temperature 53 °F 61 °F 49 °F (1953)
Degree Days  
Heating Degree Days 2    
Growing Degree Days 13 (Base 50)    
Moisture  
Dew Point 55 °F    
Average Humidity 74    
Maximum Humidity 100    
Minimum Humidity 47    
Precipitation  
Precipitation 0.00 in - - ()
Sea Level Pressure  
Sea Level Pressure 30.09 in    
Wind  
Wind Speed 0 mph (SW)    
Max Wind Speed 5 mph    
Max Gust Speed -    
Visibility 10 miles    
Events      
Averages and records for this station are not official NWS values.
T = Trace of Precipitation, MM = Missing Value Source: NWS Daily Summary

Daily Weather History Graph

Daily Weather History Graph

Search for Another Location

Airport:

Trip Planner

Search our weather history database for the weather conditions in past years. The results will help you decide how hot, cold, wet, or windy it might be!

Date:

Astronomy

Jul. 25, 2013 Rise Set
Actual Time 6:29 AM EDT 9:06 PM EDT
Civil Twilight 5:56 AM EDT 9:38 PM EDT
Nautical Twilight 5:16 AM EDT 10:18 PM EDT
Astronomical Twilight 4:31 AM EDT 11:04 PM EDT
Moon 10:42 PM EDT (7/25) 10:01 AM EDT (7/25)
Length of Visible Light 15h 41m
Length of Day
14h 37m
Waning Gibbous, 88% of the Moon is Illuminated
Jul 25
Waning Gibbous
Jul 29
Last Quarter
Aug 6
New
Aug 14
First Quarter
Aug 20
Full

Hourly Weather History & Observations

Time (EDT) Temp. Dew Point Humidity Pressure Visibility Wind Dir Wind Speed Gust Speed Precip Events Conditions
12:15 AM 57.2 °F 55.4 °F 94% 30.05 in 10.0 mi Calm Calm - N/A   Clear
12:34 AM 57.2 °F 55.4 °F 94% 30.05 in 10.0 mi Calm Calm - N/A   Clear
12:55 AM 57.2 °F 55.4 °F 94% 30.05 in 10.0 mi Calm Calm - N/A   Clear
1:15 AM 55.4 °F 53.6 °F 94% 30.05 in 10.0 mi Calm Calm - N/A   Clear
1:34 AM 57.2 °F 55.4 °F 94% 30.05 in 10.0 mi Calm Calm - N/A   Clear
1:55 AM 57.2 °F 55.4 °F 94% 30.05 in 10.0 mi Calm Calm - N/A   Clear
2:15 AM 55.4 °F 53.6 °F 94% 30.06 in 10.0 mi Calm Calm - N/A   Clear
2:34 AM 55.4 °F 53.6 °F 94% 30.06 in 10.0 mi Calm Calm - N/A   Clear
2:55 AM 53.6 °F 53.6 °F 100% 30.06 in 10.0 mi Calm Calm - N/A   Clear
3:15 AM 55.4 °F 53.6 °F 94% 30.06 in 10.0 mi Calm Calm - N/A   Clear
3:34 AM 53.6 °F 53.6 °F 100% 30.06 in 10.0 mi Calm Calm - N/A   Clear
3:55 AM 53.6 °F 53.6 °F 100% 30.06 in 10.0 mi Calm Calm - N/A   Clear
4:15 AM 53.6 °F 51.8 °F 94% 30.06 in 10.0 mi Calm Calm - N/A   Clear
4:34 AM 53.6 °F 51.8 °F 94% 30.06 in 10.0 mi Calm Calm - N/A   Clear
4:54 AM 53.6 °F 51.8 °F 94% 30.07 in 10.0 mi Calm Calm - N/A   Clear
5:15 AM 53.6 °F 51.8 °F 94% 30.07 in 10.0 mi Calm Calm - N/A   Clear
5:35 AM 53.6 °F 53.6 °F 100% 30.08 in 10.0 mi Calm Calm - N/A   Clear
5:54 AM 53.6 °F 51.8 °F 94% 30.09 in 10.0 mi Calm Calm - N/A   Clear
6:15 AM 53.6 °F 51.8 °F 94% 30.09 in 10.0 mi Calm Calm - N/A   Clear
6:35 AM 53.6 °F 53.6 °F 100% 30.09 in 10.0 mi Calm Calm - N/A   Clear
6:54 AM 53.6 °F 53.6 °F 100% 30.09 in 10.0 mi Calm Calm - N/A   Clear
7:15 AM 53.6 °F 53.6 °F 100% 30.09 in 10.0 mi Calm Calm - N/A   Clear
7:35 AM 57.2 °F 55.4 °F 94% 30.10 in 7.0 mi Calm Calm - N/A   Clear
7:55 AM 59.0 °F 55.4 °F 88% 30.10 in 7.0 mi Calm Calm - N/A   Clear
8:15 AM 60.8 °F 55.4 °F 82% 30.10 in 5.0 mi Calm Calm - N/A   Haze
8:34 AM 60.8 °F 55.4 °F 82% 30.10 in 10.0 mi Calm Calm - N/A   Clear
8:55 AM 62.6 °F 55.4 °F 77% 30.10 in 7.0 mi Calm Calm - N/A   Clear
9:15 AM 64.4 °F 55.4 °F 73% 30.11 in 10.0 mi Calm Calm - N/A   Clear
9:34 AM 64.4 °F 55.4 °F 73% 30.11 in 10.0 mi Calm Calm - N/A   Clear
9:55 AM 64.4 °F 57.2 °F 77% 30.12 in 10.0 mi SW 3.5 mph - N/A   Clear
10:15 AM 66.2 °F 55.4 °F 68% 30.12 in 10.0 mi Calm Calm - N/A   Clear
10:34 AM 66.2 °F 55.4 °F 68% 30.12 in 10.0 mi Calm Calm - N/A   Clear
10:55 AM 68.0 °F 57.2 °F 68% 30.12 in 10.0 mi Calm Calm - N/A   Clear
11:14 AM 68.0 °F 57.2 °F 68% 30.12 in 10.0 mi West 3.5 mph - N/A   Clear
11:35 AM 66.2 °F 57.2 °F 73% 30.12 in 10.0 mi Calm Calm - N/A   Clear
11:55 AM 69.8 °F 57.2 °F 64% 30.12 in 10.0 mi West 3.5 mph - N/A   Scattered Clouds
12:14 PM 68.0 °F 55.4 °F 64% 30.12 in 10.0 mi Calm Calm - N/A   Scattered Clouds
12:35 PM 71.6 °F 55.4 °F 57% 30.12 in 10.0 mi Calm Calm - N/A   Clear
12:54 PM 69.8 °F 53.6 °F 56% 30.12 in 10.0 mi Calm Calm - N/A   Scattered Clouds
1:15 PM 71.6 °F 53.6 °F 53% 30.11 in 10.0 mi Calm Calm - N/A   Clear
1:35 PM 71.6 °F 53.6 °F 53% 30.11 in 10.0 mi Calm Calm - N/A   Clear
1:54 PM 73.4 °F 53.6 °F 50% 30.11 in 10.0 mi Calm Calm - N/A   Clear
2:15 PM 73.4 °F 55.4 °F 53% 30.11 in 10.0 mi Calm Calm - N/A   Scattered Clouds
2:35 PM 71.6 °F 53.6 °F 53% 30.12 in 10.0 mi West 4.6 mph - N/A   Clear
2:54 PM 73.4 °F 53.6 °F 50% 30.11 in 10.0 mi SW 3.5 mph - N/A   Clear
3:15 PM 73.4 °F 51.8 °F 47% 30.11 in 10.0 mi Calm Calm - N/A   Scattered Clouds
3:35 PM 73.4 °F 51.8 °F 47% 30.11 in 10.0 mi Calm Calm - N/A   Clear
3:54 PM 73.4 °F 51.8 °F 47% 30.10 in 10.0 mi Calm Calm - N/A   Clear
4:15 PM 73.4 °F 53.6 °F 50% 30.10 in 10.0 mi Calm Calm - N/A   Scattered Clouds
4:34 PM 73.4 °F 51.8 °F 47% 30.10 in 10.0 mi Calm Calm - N/A   Scattered Clouds
4:55 PM 73.4 °F 51.8 °F 47% 30.10 in 10.0 mi Calm Calm - N/A   Scattered Clouds
5:15 PM 73.4 °F 53.6 °F 50% 30.09 in 10.0 mi Calm Calm - N/A   Scattered Clouds
5:34 PM 73.4 °F 51.8 °F 47% 30.08 in 10.0 mi Calm Calm - N/A   Clear
5:55 PM 73.4 °F 51.8 °F 47% 30.07 in 10.0 mi Calm Calm - N/A   Scattered Clouds
6:15 PM 73.4 °F 51.8 °F 47% 30.07 in 10.0 mi Calm Calm - N/A   Mostly Cloudy
6:34 PM 73.4 °F 53.6 °F 50% 30.07 in 10.0 mi WSW 4.6 mph - N/A   Scattered Clouds
6:55 PM 71.6 °F 55.4 °F 57% 30.08 in 10.0 mi SSW 4.6 mph - N/A   Clear
7:15 PM 71.6 °F 55.4 °F 57% 30.08 in 10.0 mi Calm Calm - N/A   Clear
7:34 PM 71.6 °F 55.4 °F 57% 30.08 in 10.0 mi Calm Calm - N/A   Clear
7:55 PM 71.6 °F 57.2 °F 60% 30.08 in 10.0 mi Calm Calm - N/A   Clear
8:15 PM 69.8 °F 55.4 °F 60% 30.08 in 10.0 mi South 3.5 mph - N/A   Clear
8:34 PM 69.8 °F 55.4 °F 60% 30.08 in 10.0 mi South 3.5 mph - N/A   Clear
8:55 PM 69.8 °F 55.4 °F 60% 30.07 in 10.0 mi Calm Calm - N/A   Clear
9:15 PM 68.0 °F 55.4 °F 64% 30.07 in 10.0 mi Calm Calm - N/A   Clear
9:34 PM 64.4 °F 57.2 °F 77% 30.08 in 4.0 mi Calm Calm - N/A   Haze
9:55 PM 66.2 °F 60.8 °F 83% 30.08 in 10.0 mi Calm Calm - N/A   Scattered Clouds
10:15 PM 66.2 °F 59.0 °F 78% 30.09 in 10.0 mi Calm Calm - N/A   Mostly Cloudy
10:34 PM 66.2 °F 57.2 °F 73% 30.08 in 10.0 mi Calm Calm - N/A   Scattered Clouds
10:55 PM 64.4 °F 57.2 °F 77% 30.09 in 10.0 mi Calm Calm - N/A   Clear
11:15 PM 64.4 °F 59.0 °F 83% 30.10 in 10.0 mi Calm Calm - N/A   Clear
11:35 PM 64.4 °F 59.0 °F 83% 30.10 in 10.0 mi Calm Calm - N/A   Clear
11:55 PM 62.6 °F 59.0 °F 88% 30.11 in 10.0 mi Calm Calm - N/A   Clear